Home   Weather   Stornoway   Past weeks

Flag for United Kingdom Past Weather in Stornoway, Scotland, United Kingdom — Yesterday and Last 2 Weeks

54 °F

Broken clouds.

Feels Like: 47 °F
Forecast: 47 / 53 °F
Wind: 25 mph from Southwest

Location: Stornoway

Current Time: Oct 27, 2016 at 3:57:42 PM

Latest Report: Oct 27, 2016 at 3:20 PM

Visibility: N/A

Pressure: 29.89 "Hg

Humidity: 88%

Dew Point: 50 °F

Location of StornowayLocation

Past Weather in Stornoway — Graph


Stornoway Temperature Yesterday

Maximum temperature yesterday: 54 °F (at 2:20 AM)
Minimum temperature yesterday: 50 °F (at 8:20 AM)
Average temperature yesterday: 52 °F

High & Low Weather Summary for the Past Weeks

High59 °F (Oct 19, 11:20 AM)100% (Oct 16, 6:50 AM)30.39 "Hg (Oct 16, 6:50 AM)
Low32 °F (Oct 24, 10:20 PM)55% (Oct 13, 1:20 PM)29.56 "Hg (Oct 17, 4:20 AM)
Average50 °F84%30.01 "Hg
* Reported Oct 12 2:20 PM — Oct 27 2:50 PM, Stornoway, Weather by CustomWeather, © 2016

Note: Actual official high and low records may vary slightly from our data, if they occured in-between our weather recording intervals... More about our weather records


Stornoway Weather History for the Previous 24 Hours

Scroll right to see more
Time TempWeatherWind HumidityBarometerVisibility
2:50 PM
Thu, Oct 27
54 °FDrizzle. Broken clouds.24 mph88%29.89 "HgN/A
2:20 PM54 °FBroken clouds.22 mph94%29.89 "HgN/A
1:50 PM54 °FBroken clouds.23 mph94%29.89 "HgN/A
1:20 PM54 °FDrizzle. Broken clouds.18 mph94%29.89 "HgN/A
12:50 PM54 °FDrizzle. Broken clouds.20 mph94%29.89 "HgN/A
12:20 PM54 °FDrizzle. Broken clouds.21 mph94%29.89 "Hg3 mi
11:50 AM54 °FDrizzle. Partly sunny.22 mph94%29.89 "Hg5 mi
11:20 AM54 °FDrizzle. Broken clouds.20 mph94%29.89 "Hg5 mi
10:50 AM52 °FDrizzle. Broken clouds.20 mph94%29.92 "Hg2 mi
10:20 AM52 °FLight rain. Broken clouds.21 mph94%29.92 "HgN/A
9:50 AM54 °FSprinkles. Broken clouds.23 mph88%29.92 "HgN/A
9:20 AM52 °FSprinkles. Broken clouds.22 mph88%29.92 "HgN/A
8:50 AM54 °FSprinkles. Broken clouds.16 mph82%29.92 "HgN/A
8:20 AM52 °FScattered showers. Partly cloudy.16 mph88%29.92 "HgN/A
7:50 AM52 °FScattered showers. Partly cloudy.12 mph88%29.92 "HgN/A
7:20 AM52 °FPartly cloudy.18 mph88%29.92 "HgN/A
6:50 AM52 °FLight rain. Passing clouds.16 mph88%29.95 "HgN/A
6:20 AM52 °FSprinkles. Partly cloudy.18 mph88%29.95 "HgN/A
5:50 AM52 °FPassing clouds.17 mph88%29.95 "HgN/A
5:20 AM52 °FPartly cloudy.20 mph88%29.95 "HgN/A
4:50 AM52 °FPartly cloudy.22 mph88%29.95 "HgN/A
4:20 AM54 °FPassing clouds.23 mph77%29.95 "HgN/A
3:50 AM54 °FPassing clouds.22 mph77%29.95 "HgN/A
3:20 AM54 °FPassing clouds.28 mph77%29.95 "HgN/A
2:50 AM54 °FPartly cloudy.26 mph77%29.95 "HgN/A
2:20 AM52 °FPartly cloudy.22 mph82%29.98 "HgN/A
1:50 AM54 °FPassing clouds.22 mph77%29.98 "HgN/A
1:20 AM52 °FPassing clouds.23 mph88%29.98 "HgN/A
12:50 AM54 °FOvercast.25 mph77%29.98 "HgN/A
12:20 AM52 °FPassing clouds.24 mph82%30.01 "HgN/A
11:20 PM
Wed, Oct 26
52 °FPassing clouds.21 mph77%30.01 "HgN/A
10:50 PM52 °FCool.20 mph77%30.04 "HgN/A
10:20 PM52 °FCool.17 mph82%30.04 "HgN/A
9:50 PM52 °FPassing clouds.14 mph82%30.04 "HgN/A
9:20 PM52 °FPassing clouds.10 mph82%30.04 "HgN/A
8:50 PM52 °FCool.15 mph77%30.04 "HgN/A
8:20 PM52 °FPassing clouds.17 mph77%30.07 "HgN/A
7:50 PM50 °FPassing clouds.16 mph82%30.04 "HgN/A
7:20 PM50 °FScattered showers. Passing clouds.13 mph82%30.04 "HgN/A
6:50 PM50 °FScattered showers. Passing clouds.14 mph82%30.04 "HgN/A
6:20 PM50 °FScattered showers. Passing clouds.20 mph82%30.04 "HgN/A
5:50 PM50 °FPassing clouds.14 mph82%30.04 "HgN/A
5:20 PM50 °FScattered clouds.14 mph82%30.04 "HgN/A
4:50 PM50 °FScattered clouds.15 mph88%30.01 "HgN/A
4:20 PM52 °FScattered clouds.16 mph82%30.01 "HgN/A
3:50 PM52 °FScattered clouds.15 mph77%29.98 "HgN/A
3:20 PM52 °FScattered showers. Scattered clouds.15 mph82%29.98 "HgN/A
Weather by CustomWeather, © 2016

See weather overviewHow to use our weather pages